Printer-friendly version

IAU Minor Planet Center

Minor Planet Center

MPEC 2006-W115: 2006 BF208

The following Minor Planet Electronic Circular may be linked-to from your own Web pages, but must not otherwise be redistributed electronically.


Read MPEC 2006-W114 Read MPEC 2006-W116


M.P.E.C. 2006-W115                               Issued 2006 Nov. 30, 12:10 UT

     The Minor Planet Electronic Circulars contain information on unusual
         minor planets and routine data on comets.  They are published
   on behalf of Commission 20 of the International Astronomical Union by the
          Minor Planet Center, Smithsonian Astrophysical Observatory,
                          Cambridge, MA 02138, U.S.A.

             Prepared using the Tamkin Foundation Computer Network

                              MPC@CFA.HARVARD.EDU
          URL http://cfa-www.harvard.edu/iau/mpc.html  ISSN 1523-6714

                                  2006 BF208

Additional Observations:
     K06BK8F 9 1992 04 09.34583 14 22 30.74 +26 52 36.10                EW115261
     K06BK8F 9 1992 04 09.40833 14 22 29.28 +26 53 16.80                EW115261
     K06BK8F 9 1992 04 27.29236 14 14 17.14 +29 34 14.10                EW115261
     K06BK8F 9 1992 04 27.35139 14 14 15.36 +29 34 35.80                EW115261
     K06BK8F  C2006 11 27.20848 14 29 43.63 +07 46 40.0          19.8 R EW115204
     K06BK8F  C2006 11 27.21583 14 29 44.36 +07 46 39.3                 EW115204

Observer details:
204 Schiaparelli Observatory.  Observer L. Buzzi.  0.60-m f/4.64 reflector
    + CCD.
261 Palomar-DSS.  Measurers S. Foglia, G. Forti, M. Tombelli.  1.2-m Schmidt.

Orbital elements:
2006 BF208
Epoch 2006 Sept. 22.0 TT = JDT 2454000.5                MPC
M 354.77369              (2000.0)            P               Q
n   0.06706720     Peri.   53.39506     -0.80901755     +0.53992336
a   5.9996965      Node   156.32595     -0.51525085     -0.84164043
e   0.4869186      Incl.   35.35120     +0.28285538     +0.01114185
P  14.70           H   14.4           G   0.15           U   2
Residuals in seconds of arc
920409 261  0.9-  1.3+    060220 703  0.0   0.2-    060309 G96  0.0   0.3-
920409 261  0.8+  1.1-    060220 703  0.3-  0.7-    060323 G96  0.1+  0.1-
920427 261  0.1-  0.7+    060220 703  0.5+  0.5-    060323 G96  0.2-  0.0
920427 261  0.2+  0.2+    060221 699  0.3-  1.0-    060323 G96  0.2+  0.3-
060131 703  0.4-  0.6-    060221 699  1.3-  1.7+    060323 G96  0.2-  0.4-
060131 703  0.4+  0.1+    060221 699  0.4+  0.1-    060526 693  0.4+  0.8-
060131 703  0.6-  0.0     060221 699  0.3-  0.4+    060526 693  0.4+  0.6-
060131 703  0.5-  0.4-    060225 691  0.0   0.2+    060526 693  0.7+  0.4-
060202 G96  0.1+  0.3-    060225 691  0.2-  1.2+    060526 693  0.8+  0.4-
060202 G96  0.3+  0.1+    060225 691  0.1+  0.0     061127 204  0.1-  0.4-
060202 G96  0.3+  0.2-    060309 G96  0.7+  0.1-    061127 204  0.0   0.4-
060202 G96  0.1-  0.1-    060309 G96  0.3+  0.5-
060220 703  0.2-  1.1-    060309 G96  0.1-  0.1-

Ephemeris:
2006 BF208               a,e,i = 6.00, 0.49, 35                  q = 3.0783
Date    TT    R. A. (2000) Decl.     Delta      r     Elong.  Phase     V
2006 12 01    14 35.91   +07 41.7    3.766    3.079    40.1    11.9    20.4
2006 12 11    14 52.13   +07 35.5    3.685    3.078    45.6    13.2    20.4
2006 12 21    15 08.12   +07 40.5    3.597    3.079    51.3    14.4    20.4
2006 12 31    15 23.75   +07 57.5    3.504    3.082    57.0    15.5    20.4
2007 01 10    15 38.89   +08 27.4    3.408    3.086    62.9    16.5    20.4
2007 01 20    15 53.39   +09 10.6    3.308    3.092    68.8    17.3    20.4
2007 01 30    16 07.06   +10 07.4    3.208    3.099    74.8    17.9    20.3
2007 02 09    16 19.73   +11 17.4    3.108    3.107    80.8    18.3    20.3
2007 02 19    16 31.20   +12 40.0    3.010    3.117    86.9    18.5    20.2
2007 03 01    16 41.25   +14 13.8    2.916    3.129    93.0    18.4    20.1
2007 03 11    16 49.67   +15 56.8    2.828    3.142    99.1    18.2    20.1
2007 03 21    16 56.26   +17 46.1    2.747    3.156   105.1    17.7    20.0
2007 03 31    17 00.85   +19 37.9    2.675    3.171   110.9    17.1    19.9
2007 04 10    17 03.33   +21 27.6    2.615    3.188   116.4    16.3    19.9
2007 04 20    17 03.65   +23 09.8    2.567    3.206   121.3    15.5    19.8
2007 04 30    17 01.91   +24 38.3    2.534    3.226   125.6    14.7    19.8
2007 05 10    16 58.38   +25 47.5    2.517    3.246   128.8    14.0    19.8
2007 05 20    16 53.47   +26 32.3    2.516    3.268   130.8    13.6    19.8
2007 05 30    16 47.76   +26 49.2    2.533    3.291   131.2    13.4    19.8
2007 06 09    16 41.93   +26 37.2    2.568    3.315   130.2    13.5    19.8
2007 06 19    16 36.58   +25 57.0    2.620    3.340   127.7    13.9    19.9
2007 06 29    16 32.30   +24 51.7    2.689    3.365   124.1    14.5    20.0
2007 07 09    16 29.45   +23 25.8    2.772    3.392   119.6    15.1    20.1
2007 07 19    16 28.27   +21 44.2    2.870    3.420   114.6    15.7    20.2
2007 07 29    16 28.86   +19 51.9    2.980    3.449   109.1    16.2    20.3
2007 08 08    16 31.17   +17 53.7    3.101    3.478   103.3    16.5    20.4
2007 08 18    16 35.11   +15 53.3    3.230    3.508    97.5    16.6    20.6
2007 08 28    16 40.56   +13 54.1    3.366    3.539    91.5    16.6    20.7
2007 09 07    16 47.34   +11 58.7    3.506    3.571    85.4    16.3    20.8
2007 09 17    16 55.31   +10 08.9    3.650    3.603    79.4    15.9    20.9

Timothy B. Spahr             (C) Copyright 2006 MPC           M.P.E.C. 2006-W115

Read MPEC 2006-W114 Read MPEC 2006-W116


Our Web policy. Index to the CBAT/MPC/ICQ pages.


Valid HTML 4.01!